TITAN 3C TRANSTAGE DEB, 59978

Orbit data source: Space-Track

TITAN 3C TRANSTAGE DEB, 59978 is space debris in GEO originally from a launch on Thu, 26 Sep 1968 UTC launched from the Air Force Eastern Test Range (AFETR). Debris objects in space refer to the collection of defunct objects orbiting the Earth. Examples of debris include non-operational satellites, rocket bodies, and fragments generated from explosions, collisions, or faulty payload assembly.

Not visible in the next 10 days
Identifier
59978, 1968-081AL
Orbit
GEO
Country
Flag of USUS
Related business
Manufacturer
Unknown
Mission
Spacecraft
Bus & Motor
Unknown
Mass
Unknown
Launch date (UTC)
1968-09-26 (57 years ago)
Launch vehicle
Unknown
Launch site
Air Force Eastern Test Range (AFETR)
Object type
Payload
Rocket body
Debris
Shape & HBR
Unknown shape, 1.1 m
Radar Cross Section
RCS unknown

Expand to show TLE details & history
Last TLE update: 1 week ago

TLE from 1 week ago
0 TITAN 3C TRANSTAGE DEB
1 59978U 68081AL  26055.65991565  .00000031  00000-0  00000-0 0  9999
2 59978   1.9541  55.2725 0103462 246.8901 112.4820  1.02046516 28667
Epoch: 2026-02-24T15:50Z
TLE epoch observation values (Epoch: 2026-02-24T15:50:16.712Z)
Latitude
Longitude
23.6535°
Altitude
35,463.637 km
Speed
3.08 km/s
True Right ascension
03h 43m 02s
True Declination
0° 00' 00"
Sunlit
Object was in daylight at epoch
Visualization orbit readout
Latitude
Unknown
Longitude
Unknown
Altitude
Unknown
Speed
Unknown
Apparent Right ascension
Unknown
Apparent Declination
Unknown
Sunlit
N/A
Visualization observer readout
Local Sidereal Time
21:49:46
Azimuth
Unknown
Elevation
Unknown
Doppler factor
Unknown
Orbital elements
Apogee altitude
35,728.562 km
Perigee altitude
34,866.195 km
Semi-major axis
41,675.516 km
Eccentricity
0.01035
Inclination
1.9541°
RAAN
55.2725°
Arg. of periapsis
246.8901°
True anomaly
113.57202°
Mean anomaly
112.482°
Eccentric anomaly
113.02756°
Mean motion
0.25511 °/min
Orbital period
1,411.17 mins
BSTAR
0
Loading maneuver chart data...
Computing Atmospheric mass density...

Documentation

Showing up to 5 results
|